Theta_e
299 299 302 302 302 293 295 297 293 295 299 299 294 298 296 293 290 290 294 296 296 301 308 312 310 311 312 313 314 315 316 317 318 320 322 325 328 329 331 333 334 336 338 339 341 342 342 343 345 346 347 349 350 350 350 350 350 350 348 348 347 346 343
300 300 303 302 303 300 295 292 296 299 300 298 296 289 287 287 287 288 292 295 294 297 296 304 308 308 311 311 312 314 315 316 317 319 321 324 327 329 331 333 335 336 338 339 340 342 343 343 344 346 348 350 351 351 350 350 350 349 347 347 346 344 341
299 301 301 300 301 302 302 296 300 299 293 293 291 291 287 286 286 286 289 294 294 297 299 300 305 307 309 311 312 312 313 315 317 318 320 323 326 328 330 332 333 335 337 339 340 341 343 344 345 346 348 350 350 351 351 351 350 350 348 347 346 344 341
298 299 298 295 297 301 300 301 299 301 298 292 292 294 291 293 285 286 287 291 291 298 300 303 305 308 310 311 310 311 313 315 317 318 320 322 324 326 329 331 333 335 337 338 340 341 342 343 344 345 347 349 350 350 351 351 351 351 347 345 345 341 339
298 293 295 297 299 293 295 296 294 298 300 297 296 296 292 291 287 286 285 287 289 295 302 304 307 307 310 311 311 312 314 315 317 319 320 321 323 325 328 330 332 334 335 338 339 341 342 344 345 345 346 348 349 350 350 350 349 349 346 344 343 341 339
292 292 296 299 298 299 296 297 295 295 293 295 292 290 293 291 291 283 284 289 289 299 306 307 307 309 310 312 312 313 314 315 317 318 320 322 323 325 327 329 331 333 334 336 338 340 341 342 343 344 346 347 349 349 350 350 350 349 346 343 342 341 338
296 297 300 300 300 301 300 301 298 299 297 295 292 287 289 292 292 293 290 289 293 299 305 308 309 308 310 312 313 313 314 315 316 318 320 322 324 325 327 329 331 332 334 335 337 338 339 340 342 343 345 346 348 349 350 350 349 348 347 344 342 341 338
297 300 300 301 300 299 298 297 298 297 296 298 296 294 292 293 291 292 291 290 288 297 308 309 310 310 310 312 314 315 315 316 317 317 319 321 322 324 326 329 330 331 333 334 336 336 337 338 340 342 344 346 348 349 349 349 348 348 347 344 342 340 338
292 295 297 297 298 299 295 295 296 297 297 298 295 295 294 295 292 294 291 287 290 299 309 308 309 309 311 311 314 316 315 315 316 318 319 320 322 323 324 326 328 330 331 332 334 336 337 338 339 341 343 344 346 348 349 348 348 348 346 344 341 339 338
285 285 287 290 293 293 292 296 296 297 298 296 296 294 294 290 292 294 290 288 293 298 302 305 308 309 309 311 314 316 316 316 317 318 319 320 321 322 323 324 326 328 330 332 333 335 336 337 338 340 342 344 346 347 348 349 348 347 345 343 341 339 338
291 292 291 294 298 293 295 294 297 296 297 299 299 294 292 292 288 293 290 295 297 300 304 305 306 308 309 310 312 315 316 316 317 318 320 320 321 321 321 324 326 328 329 331 332 334 336 337 338 340 341 343 345 346 347 348 347 346 344 342 340 339 339
298 298 297 297 299 296 295 296 295 297 297 296 297 295 295 294 293 288 292 293 299 300 303 305 306 306 308 310 313 315 316 317 317 318 319 329 320 321 322 323 325 327 329 330 332 333 335 336 338 340 341 343 344 345 346 346 346 344 343 341 340 339 339
299 300 299 299 298 297 296 296 296 296 296 295 296 297 297 297 297 295 297 295 299 301 304 307 308 309 310 311 313 316 318 319 318 318 319 320 320 320 321 322 324 326 327 329 331 332 334 336 337 339 341 342 344 345 345 345 345 343 343 341 340 339 338
298 298 298 298 298 298 298 297 296 296 295 295 297 298 298 299 299 300 300 298 301 304 305 307 309 311 312 313 315 316 317 317 319 318 318 319 320 320 321 322 324 326 328 329 330 332 334 335 337 338 340 341 343 343 344 344 343 343 342 340 339 339 337
295 297 298 297 296 297 297 298 298 297 295 295 296 297 298 301 299 299 301 299 301 305 307 309 310 310 311 312 314 315 317 317 318 318 318 319 320 320 322 323 324 326 327 329 330 332 333 335 337 338 340 341 343 343 343 343 343 343 341 340 340 335 334
291 295 296 296 296 295 295 296 297 296 294 294 295 296 299 298 298 298 299 297 299 305 306 311 308 309 311 312 312 314 315 317 319 319 319 320 320 321 322 324 325 326 328 329 330 331 333 335 337 339 340 341 342 342 342 342 343 343 341 340 335 334 335
290 294 295 295 294 295 292 293 295 296 296 296 296 299 303 302 301 299 297 298 304 307 309 308 308 308 310 311 311 313 315 317 319 319 320 320 321 322 323 325 326 327 328 330 331 332 334 335 337 339 341 341 341 342 342 343 343 342 340 337 334 335 336
288 293 294 294 291 287 287 295 297 299 297 297 297 297 300 302 303 301 302 303 306 307 307 308 308 307 309 312 314 316 317 317 317 319 321 322 323 324 325 326 327 328 329 330 332 333 334 337 339 341 343 342 343 344 343 343 342 341 340 335 335 335 336
290 292 294 291 287 287 295 303 307 302 300 301 300 303 305 307 306 306 306 306 305 307 309 310 311 311 312 314 315 314 316 318 320 320 321 322 323 324 325 326 327 328 328 329 330 332 334 337 340 342 342 343 343 342 342 341 342 341 338 335 335 335 334
292 292 290 286 285 293 303 307 308 312 305 304 305 304 305 307 306 306 305 306 307 307 308 309 312 311 312 314 317 315 316 320 321 321 321 323 324 324 326 327 328 328 329 329 330 332 337 338 340 342 342 343 342 341 342 341 340 339 337 335 335 334 333
291 288 287 289 296 301 304 305 305 306 303 303 301 297 302 307 309 307 305 306 307 309 310 311 313 313 313 312 315 315 317 318 321 322 323 324 325 327 328 329 330 332 333 333 333 334 335 337 338 340 342 342 342 340 339 339 339 337 336 335 334 334 333
291 290 289 292 292 291 296 303 311 311 310 310 307 304 303 308 311 310 307 307 307 309 309 311 312 313 310 308 310 314 316 319 320 320 322 325 328 328 328 330 331 333 335 336 337 335 334 336 337 339 340 341 340 337 336 335 336 335 335 334 334 334 333
292 292 288 285 287 292 298 304 308 312 312 314 308 303 299 307 310 311 308 308 309 311 311 311 312 309 305 305 310 316 314 317 319 319 318 321 323 325 327 330 331 333 335 337 337 336 335 335 335 337 339 338 337 334 333 333 334 334 334 335 335 335 335
294 288 287 290 292 298 304 306 309 312 313 312 304 295 296 303 311 311 310 309 309 309 310 310 309 307 305 306 312 313 316 317 318 319 320 321 321 322 324 331 332 336 339 338 335 334 334 334 334 335 336 336 335 333 332 333 333 333 334 335 336 337 336
295 297 290 291 297 304 307 308 311 311 312 303 296 292 298 309 310 312 311 313 310 310 311 311 309 312 311 311 317 325 321 327 332 335 337 336 336 336 337 336 339 336 335 335 335 334 333 331 331 333 334 333 333 332 331 331 332 333 335 335 335 336 335
296 293 292 292 294 300 308 311 310 312 306 295 291 302 310 309 312 313 315 315 316 317 317 318 317 318 321 327 329 330 331 330 330 333 336 339 340 340 341 340 337 335 333 331 330 328 328 329 330 331 332 332 332 331 330 330 332 333 333 334 335 334 333
297 292 291 292 292 301 310 309 308 310 299 297 305 312 314 316 315 315 315 315 317 320 318 320 321 323 325 326 328 329 331 332 332 332 333 334 334 335 336 336 337 334 331 329 328 328 329 329 330 330 331 332 331 331 329 330 331 332 333 333 333 333 333
296 292 290 290 299 306 312 309 304 309 308 310 311 314 313 316 317 318 318 318 319 320 320 321 323 324 325 326 327 328 329 330 331 331 331 331 332 333 334 334 333 333 330 329 329 329 329 329 329 329 331 331 330 329 327 328 330 332 331 331 332 332 332
298 296 297 303 309 311 312 311 310 311 312 314 314 316 316 317 318 319 320 319 321 321 321 320 320 321 324 325 327 327 327 328 328 328 328 328 329 329 330 332 334 332 331 329 329 329 329 329 328 329 330 330 331 327 326 330 330 330 330 330 330 330 330
309 309 309 312 311 312 314 316 313 312 312 313 314 316 316 316 318 320 320 321 320 320 322 321 321 320 321 323 324 326 327 327 326 328 328 328 329 330 331 331 333 331 331 330 329 329 329 329 329 331 329 330 330 327 329 331 329 329 329 329 329 329 329
301 297 309 309 309 312 313 312 316 314 313 312 313 313 313 314 317 319 321 321 321 322 322 322 322 322 323 323 324 325 326 326 326 327 327 326 326 327 329 332 333 331 331 329 329 330 329 329 329 330 329 330 329 329 330 329 329 329 329 329 330 329 329
302 304 310 313 314 314 315 314 310 311 312 313 313 313 313 314 314 313 314 316 318 322 322 322 322 321 322 322 323 324 325 326 326 326 326 326 326 326 327 331 331 330 330 330 330 330 329 329 330 331 330 329 329 330 330 330 330 330 330 330 329 328 329
308 311 313 313 315 315 316 317 316 316 313 312 312 313 313 313 311 312 313 315 315 318 319 320 320 321 322 322 323 324 324 324 324 325 325 324 325 326 327 329 331 328 329 330 330 330 330 329 330 330 329 328 328 328 329 330 330 330 330 332 331 329 329
303 304 307 312 306 305 310 315 319 316 314 313 311 311 311 311 310 310 310 310 312 313 315 317 319 318 319 322 324 325 324 324 324 324 323 324 324 324 325 328 327 329 331 329 329 330 329 329 329 328 327 327 327 327 326 327 329 330 332 332 331 331 331
299 307 312 310 310 311 311 313 316 316 314 312 310 309 308 308 309 310 310 310 310 310 313 318 322 322 322 322 324 324 324 324 324 324 323 324 324 324 326 327 326 327 327 330 329 329 328 329 328 327 326 325 325 326 327 329 330 331 332 331 331 331 331
305 306 305 306 307 304 305 308 309 311 313 311 309 309 308 308 309 310 309 309 309 308 310 312 318 323 324 325 325 324 323 324 325 325 324 324 325 326 326 326 326 326 327 328 328 328 327 328 327 327 326 326 325 326 327 329 330 329 327 325 323 325 328
306 308 307 306 306 306 308 309 309 310 311 313 311 309 309 308 309 311 310 310 310 310 309 309 311 314 315 316 320 322 323 325 327 330 328 328 330 327 326 326 325 325 326 326 325 326 326 325 325 326 324 324 325 327 328 326 323 321 321 322 322 321 322
Wind_Speed
5 6 6 4 8 8 4 5 6 7 7 8 3 2 0 3 3 5 3 2 5 8 10 10 4 4 9 7 7 8 11 9 10 12 13 13 15 15 15 16 16 16 14 14 15 16 15 14 14 15 16 16 17 16 14 15 14 12 13 14 13 11 10
6 5 7 6 7 8 6 5 8 2 3 4 5 5 2 1 5 5 2 8 2 4 6 5 4 6 13 10 14 12 6 6 11 13 13 15 16 17 17 17 17 17 17 19 17 16 17 18 18 18 18 17 15 15 15 16 14 15 14 14 13 13 12
4 2 4 5 5 4 9 5 8 8 4 5 2 4 2 1 2 2 2 4 3 9 8 3 5 11 16 16 13 5 7 11 14 13 14 14 15 14 14 15 14 14 14 15 16 17 17 18 18 17 16 15 12 12 13 14 17 17 16 12 11 10 12
2 4 7 13 10 1 3 5 4 0 5 3 5 7 5 6 5 2 4 2 6 7 7 12 12 14 16 16 11 10 12 15 15 13 14 16 16 16 15 15 15 16 17 18 19 18 18 18 17 16 16 14 15 15 15 14 13 10 10 12 11 11 11
1 6 4 12 11 6 3 4 3 2 0 3 4 1 4 5 6 6 5 3 6 8 10 11 15 13 15 15 15 13 13 14 16 16 14 13 15 14 15 16 16 17 17 16 16 16 17 17 15 13 12 15 17 14 14 14 15 14 14 13 13 12 10
5 7 7 7 7 9 8 9 8 8 5 4 6 9 2 2 3 3 4 8 6 9 5 12 14 14 14 14 15 14 14 14 14 10 12 15 15 16 16 16 16 16 16 16 16 14 12 11 11 13 15 14 14 15 16 15 14 14 14 13 13 12 12
10 8 7 4 4 8 9 12 10 11 6 5 5 6 5 1 2 5 4 2 7 8 6 13 14 6 7 7 6 10 11 10 8 10 12 14 17 17 16 16 16 15 15 15 16 16 16 17 17 18 16 16 17 18 17 15 15 16 14 14 12 11 11
4 6 4 1 4 3 0 4 1 7 11 10 9 7 8 7 1 1 1 2 6 3 2 5 6 4 5 5 9 14 11 5 5 8 9 12 10 10 12 13 12 12 12 11 10 11 12 12 13 14 15 15 15 15 15 14 16 16 14 12 12 12 12
3 6 4 4 1 3 4 4 5 6 4 4 2 3 2 6 8 9 7 7 3 5 2 4 4 5 7 8 9 8 10 6 6 8 8 9 10 10 10 10 10 9 10 12 14 14 15 16 16 15 15 15 14 14 14 15 15 15 13 11 13 13 14
9 8 11 12 10 8 2 2 5 6 10 8 5 6 3 8 3 4 4 4 8 8 5 4 3 4 5 6 6 7 8 7 7 7 9 10 10 11 10 8 9 13 14 13 13 14 14 14 14 14 14 14 14 14 15 14 14 12 12 12 14 14 14
11 10 7 6 5 3 7 4 9 7 7 13 10 6 6 10 5 7 8 8 5 4 6 6 8 5 8 8 6 9 11 10 9 9 10 11 9 9 11 12 9 6 8 13 15 14 14 14 13 13 14 14 14 13 14 13 12 12 12 12 13 15 15
15 15 13 9 8 7 7 9 7 9 10 8 10 9 9 6 9 7 6 4 7 10 8 10 9 7 5 5 8 9 8 9 12 10 6 5 4 5 5 6 9 13 13 11 11 12 12 12 11 11 12 12 13 14 14 13 12 12 11 13 14 15 15
15 14 14 9 6 7 7 8 8 8 8 8 12 10 10 11 10 12 8 8 7 8 10 13 14 12 13 14 16 17 12 4 4 6 8 10 10 8 9 10 9 9 10 10 11 11 12 11 11 12 11 11 10 9 9 8 10 12 11 12 13 13 13
13 13 11 6 10 6 5 6 7 7 8 11 13 11 8 13 9 12 12 13 16 12 11 12 14 13 11 7 2 2 5 11 12 9 10 13 12 13 13 11 11 10 11 11 11 11 10 12 12 12 11 11 11 11 11 11 12 11 11 13 13 10 5
10 13 11 8 8 10 11 12 10 9 6 8 11 8 2 1 6 5 0 8 12 9 8 10 3 2 3 4 7 11 8 6 9 11 12 13 14 12 9 8 9 10 10 9 7 8 10 11 13 12 12 11 10 11 11 11 12 12 12 11 6 10 15
5 5 8 11 7 8 10 13 12 9 6 5 4 5 7 7 8 7 3 4 10 11 5 1 3 5 7 9 10 9 8 9 9 12 14 13 10 8 10 10 9 8 8 8 10 12 12 12 11 10 10 10 10 12 12 12 12 10 9 8 13 15 15
5 8 6 10 5 2 5 10 12 11 9 7 4 3 4 9 8 8 7 10 11 14 6 6 4 7 10 9 7 6 5 8 15 17 13 9 8 10 10 10 11 11 11 12 13 12 9 10 11 13 12 10 12 13 13 12 8 9 9 12 14 13 12
4 8 4 3 4 8 8 8 6 10 11 11 9 7 10 8 9 8 9 10 4 2 6 12 11 8 10 15 15 11 13 14 10 5 7 10 11 10 9 11 12 12 8 7 7 7 7 8 9 6 8 12 12 8 6 7 10 9 11 12 12 12 12
6 4 4 3 8 8 6 3 4 8 10 14 16 5 1 1 4 5 8 9 7 10 11 16 17 13 3 2 4 5 7 7 8 12 10 9 9 11 10 9 8 7 8 6 5 7 8 8 6 6 7 8 5 6 8 8 7 10 11 12 12 13 13
1 1 3 3 6 4 2 1 3 2 5 4 11 3 1 2 3 5 6 9 8 7 8 3 2 5 4 3 3 3 6 10 12 11 11 11 10 10 10 10 9 9 9 10 9 6 5 7 8 9 9 7 8 7 8 9 10 11 13 13 13 14 15
3 2 2 6 3 2 0 1 2 2 2 3 5 7 2 2 1 5 3 5 4 4 3 2 3 6 6 4 1 3 2 3 2 5 8 12 12 10 7 7 7 5 6 7 8 6 7 7 8 9 7 8 8 8 10 10 12 13 14 14 14 15 17
3 2 1 1 1 3 6 3 0 1 1 2 4 3 3 2 2 1 2 3 4 4 4 5 5 6 9 3 4 4 4 2 1 3 4 2 3 3 5 4 4 4 4 4 5 7 8 7 7 6 7 8 8 9 10 11 13 13 14 15 17 19 20
2 1 3 4 5 5 6 1 2 1 1 1 6 3 3 1 4 4 2 4 3 2 3 7 8 8 5 5 1 2 3 3 3 6 6 6 6 5 6 6 6 3 3 5 6 6 6 7 6 6 7 8 9 9 10 11 12 14 15 16 17 18 14
2 3 3 3 3 1 2 4 4 4 3 2 4 5 4 1 7 2 2 3 6 5 6 4 6 4 10 6 3 1 2 4 4 4 7 8 8 8 6 7 9 8 6 7 6 7 7 6 5 7 8 9 9 10 9 10 12 13 15 16 15 9 9
3 2 2 3 2 3 2 5 11 10 2 3 7 8 5 2 3 2 5 1 4 8 7 3 6 1 3 4 1 3 4 9 9 7 7 7 7 8 7 8 8 8 6 6 5 4 3 5 6 7 8 8 8 8 9 10 13 13 10 8 9 9 9
5 2 2 3 3 3 5 11 11 6 2 3 6 3 2 4 1 5 8 7 5 11 11 10 7 4 2 3 6 12 12 11 7 8 7 9 11 8 7 8 8 8 7 6 6 6 4 6 6 7 7 7 7 8 8 12 9 5 8 9 9 9 10
1 1 1 1 4 2 11 19 8 4 1 3 2 3 3 2 1 7 7 6 3 9 11 10 10 9 8 10 12 12 11 12 11 10 11 10 9 8 8 9 7 8 7 6 5 4 4 5 5 6 7 7 7 7 8 5 5 7 8 9 10 9 9
1 3 2 1 1 8 12 7 3 4 1 4 5 7 6 2 2 6 7 7 4 7 11 11 11 11 11 10 10 12 11 11 10 10 10 8 8 9 8 7 6 8 7 5 4 3 3 2 2 3 5 5 5 5 5 5 6 7 8 8 9 9 8
3 2 4 4 2 3 7 7 6 3 5 6 4 3 6 7 6 3 9 7 7 9 12 13 13 14 11 10 10 12 8 10 10 10 9 8 8 7 7 7 6 5 6 6 4 3 2 1 1 2 2 5 6 7 5 6 8 8 8 9 9 9 8
3 3 5 6 3 3 8 9 5 5 7 7 5 5 10 7 6 6 7 5 5 6 7 13 10 9 8 11 10 10 10 10 8 8 8 8 8 7 7 7 7 6 5 5 4 4 2 2 2 2 3 5 6 6 6 6 7 8 8 9 9 9 8
6 1 2 3 3 3 4 3 6 8 6 5 3 6 7 5 6 9 7 7 6 5 8 11 10 8 8 10 8 7 7 9 8 8 7 6 7 7 7 4 4 4 4 5 5 5 4 2 3 4 4 4 5 7 7 7 7 8 8 8 8 8 8
6 10 7 5 5 1 1 3 4 6 6 6 5 4 4 3 6 8 7 6 8 5 8 7 11 7 6 9 7 5 5 5 5 6 5 5 5 4 5 2 3 3 3 5 5 4 4 3 4 5 5 5 5 6 6 7 8 8 8 9 9 8 7
1 6 8 6 4 2 3 3 4 4 3 3 5 5 6 6 10 10 11 10 9 9 7 6 6 8 5 4 4 7 4 4 3 4 4 4 4 3 5 5 7 7 4 3 2 2 2 3 4 5 5 5 5 7 6 5 6 7 7 6 5 5 5
9 8 8 10 9 6 2 2 5 4 4 3 6 6 9 9 9 9 13 11 9 10 9 8 8 7 4 5 5 8 7 6 5 3 2 2 4 4 2 2 3 3 2 1 1 2 2 3 4 4 5 5 4 4 4 4 5 5 5 5 5 5 5
2 3 4 1 1 8 5 4 4 2 5 3 9 9 8 8 7 8 11 13 13 13 12 10 10 8 7 5 3 6 6 4 1 2 1 1 1 2 3 5 4 3 2 1 2 2 2 3 4 5 5 5 5 5 5 5 6 7 7 6 5 4 5
4 4 8 4 4 7 8 10 10 9 8 6 11 7 6 7 8 11 13 11 11 10 11 12 10 9 10 9 9 8 6 6 6 5 4 5 5 5 6 6 3 1 1 2 3 4 4 5 5 5 6 5 6 6 5 5 5 7 8 8 7 6 5
3 5 4 7 11 11 10 11 10 11 11 9 8 7 7 10 11 12 13 10 9 10 10 10 9 7 9 10 10 9 6 5 5 6 7 8 7 6 4 3 2 0 1 3 4 5 6 6 6 6 6 6 6 7 8 8 9 10 10 9 9 8 7
Wind_Direction
180 197 157 193 150 203 226 125 200 212 172 143 84 68 164 115 52 249 187 315 288 311 315 281 336 312 273 254 234 194 215 187 172 194 195 193 194 196 196 199 199 197 192 192 191 191 192 193 192 195 197 196 197 196 195 197 198 192 190 192 189 186 181
254 198 174 181 199 144 108 179 222 140 95 107 140 209 354 81 186 254 124 194 216 113 271 295 246 253 258 255 245 219 195 148 185 199 195 191 193 198 197 199 198 194 191 191 193 194 192 192 195 198 199 198 199 196 195 195 193 193 196 192 189 185 181
218 150 162 273 271 188 187 198 177 153 221 246 310 111 193 130 228 257 278 241 250 196 229 319 245 216 238 244 246 219 181 188 200 201 197 192 194 194 194 198 197 196 196 196 195 195 195 196 198 199 200 195 195 198 199 196 198 199 193 189 187 186 183
222 135 145 218 220 249 39 77 132 263 122 157 142 200 173 155 236 135 289 101 221 213 221 203 226 216 224 234 241 230 212 200 202 200 193 189 190 194 193 195 196 196 197 196 194 194 194 195 198 199 194 191 196 199 197 201 203 194 184 189 185 185 189
30 213 198 211 194 174 167 172 196 196 77 221 115 71 136 180 175 188 176 243 273 248 213 198 219 218 219 216 223 228 225 212 208 202 188 184 189 190 192 194 195 197 199 197 198 198 199 198 198 193 190 195 200 196 199 198 194 193 191 189 184 190 179
212 233 227 181 168 167 177 176 198 167 134 155 211 251 31 113 136 212 166 235 259 254 182 203 217 220 215 216 211 221 227 218 211 190 180 181 188 194 193 194 194 197 196 195 197 196 197 190 190 189 195 198 196 196 200 197 197 196 194 187 189 183 182
224 220 235 203 175 180 189 178 206 184 180 147 162 217 254 10 267 113 162 149 270 243 208 200 214 216 238 245 234 237 237 228 210 195 188 187 189 189 192 193 196 195 191 190 190 189 188 190 194 195 196 196 198 200 198 196 195 200 193 189 181 178 181
300 281 298 175 177 137 325 284 288 165 195 191 197 190 181 178 182 131 34 216 250 284 222 227 234 228 243 239 208 223 236 231 203 188 182 188 194 202 200 197 190 188 185 181 181 188 192 199 200 201 200 201 202 202 199 196 200 200 190 181 180 181 184
244 274 325 306 354 169 190 191 200 183 182 169 101 85 76 207 203 176 153 225 274 270 338 296 222 208 222 229 238 231 235 221 190 191 195 195 198 193 192 189 184 170 168 177 187 189 193 197 200 199 200 200 200 202 199 199 202 197 186 178 179 185 186
210 213 210 216 225 213 245 227 181 185 177 167 126 219 181 217 269 145 170 236 246 269 313 294 249 204 235 248 239 229 226 214 196 196 198 200 194 194 184 172 161 179 183 183 187 193 197 199 198 198 199 201 202 203 203 201 199 188 184 179 186 185 188
211 216 209 234 133 113 194 219 185 200 199 182 177 130 156 207 211 185 226 178 214 259 250 252 256 204 215 228 220 214 215 214 206 198 203 203 192 179 178 179 179 155 167 187 193 194 197 197 197 198 198 200 202 202 203 201 195 187 184 181 186 189 190
214 208 209 195 170 179 199 193 210 198 181 179 170 170 216 169 120 235 263 211 177 223 230 233 239 238 246 235 220 227 233 214 200 199 179 142 165 171 152 158 169 184 187 186 190 195 197 199 199 201 204 203 202 200 202 197 190 184 183 184 189 194 193
228 223 221 185 188 188 189 193 194 196 200 162 181 207 202 143 194 217 232 179 196 228 217 215 215 204 203 203 206 207 206 183 129 133 168 185 191 182 180 188 183 177 181 187 192 194 198 194 195 201 201 203 202 203 200 190 186 190 183 189 194 196 197
236 237 235 203 186 219 228 218 210 205 178 189 192 210 198 184 205 209 208 179 207 208 217 216 223 216 203 200 152 103 166 188 187 176 180 190 192 190 191 184 181 184 190 189 193 191 189 192 197 197 199 199 198 196 195 189 190 189 178 190 192 186 153
240 237 231 225 201 207 230 238 232 226 204 199 206 212 187 189 280 312 168 185 232 249 221 221 240 86 97 114 176 196 194 164 178 186 192 196 196 193 185 177 184 191 191 191 180 183 195 196 198 197 198 197 194 196 195 191 192 186 183 184 146 94 94
280 235 216 227 208 209 225 244 243 233 202 205 198 198 200 163 207 209 139 198 244 257 239 184 136 144 161 190 193 187 187 183 177 189 203 201 188 177 183 186 185 184 185 181 186 194 197 199 196 196 196 193 188 199 194 194 191 177 167 130 120 134 152
262 253 190 212 186 157 271 254 242 222 212 209 223 226 174 203 168 157 187 230 221 225 182 166 208 179 199 205 198 204 209 195 186 195 196 181 180 189 183 183 190 191 188 191 195 198 195 193 194 203 193 183 197 199 194 196 160 157 143 134 144 145 147
242 263 203 127 117 217 233 228 209 194 203 200 210 218 203 208 156 198 204 226 251 102 154 188 203 193 200 200 210 196 184 180 183 176 173 186 189 188 190 191 192 194 187 189 193 192 190 195 202 188 185 198 205 189 168 131 159 150 139 143 141 145 149
272 334 75 145 216 237 238 278 236 203 204 193 203 199 122 234 255 271 280 262 238 214 197 194 200 201 249 9 124 147 158 157 167 168 176 189 186 186 187 193 197 189 184 170 159 176 188 184 172 169 193 203 172 153 158 152 137 133 134 137 145 148 153
16 46 143 210 237 234 270 186 75 107 109 123 104 67 261 245 220 199 233 250 243 230 245 277 79 116 136 80 28 151 167 164 165 166 184 188 181 184 191 187 190 178 177 181 181 178 153 160 178 184 195 177 167 161 135 136 136 136 142 147 152 154 162
229 221 203 219 292 28 47 16 26 42 148 155 150 156 236 204 217 186 217 269 271 248 227 173 118 120 100 76 71 352 213 185 159 184 181 171 179 182 185 179 181 170 160 168 180 159 168 174 175 194 179 170 164 140 142 142 140 144 148 153 157 164 172
124 140 356 349 67 173 262 231 249 209 127 170 178 130 165 235 334 149 184 227 231 187 141 134 150 115 76 106 229 337 5 12 58 55 97 94 120 120 121 121 126 124 120 118 144 156 161 175 184 175 166 160 147 144 146 144 144 153 157 166 173 177 186
69 137 169 204 164 237 206 227 254 235 145 197 162 102 142 229 354 335 177 213 206 126 156 164 152 117 141 206 273 305 351 43 67 71 51 68 80 77 59 64 68 91 144 142 136 127 138 163 185 162 156 147 147 151 152 154 155 163 175 177 182 189 179
294 140 134 228 210 120 349 287 296 306 335 240 103 106 214 297 340 300 93 197 152 116 110 101 46 123 168 168 157 282 17 76 56 76 80 69 70 75 121 130 138 134 130 100 97 134 160 178 160 152 147 153 157 160 161 158 167 178 186 189 189 166 148
304 7 265 311 296 277 276 304 313 321 282 83 117 173 226 329 321 63 102 235 163 124 114 92 92 351 163 177 201 55 111 81 58 71 87 103 111 110 104 104 108 100 93 111 134 138 145 145 148 146 148 148 160 159 161 170 190 194 181 167 162 160 159
344 296 220 217 241 236 320 320 312 291 67 136 216 231 274 280 18 81 92 87 71 98 92 99 97 90 38 113 91 68 61 73 55 37 45 60 61 58 64 75 89 96 89 92 93 81 104 142 146 149 146 153 158 162 169 197 196 138 148 156 156 159 168
102 22 339 121 143 246 12 324 332 45 124 220 188 123 19 351 360 80 60 70 47 90 94 101 117 113 92 72 69 77 72 68 60 54 52 54 66 63 67 64 53 84 88 80 90 126 135 137 141 149 151 158 164 168 191 186 136 147 146 152 158 159 161
150 267 255 212 242 290 319 345 59 316 22 153 156 134 96 5 69 82 84 64 60 78 89 90 77 74 77 69 70 69 66 71 69 65 57 46 44 53 53 66 80 93 97 93 88 69 59 74 99 135 161 151 146 158 172 138 142 142 145 145 148 149 152
132 194 248 272 244 284 332 5 3 353 23 37 23 68 96 102 53 22 83 72 62 73 85 77 76 69 62 68 61 70 68 69 70 72 70 71 69 55 53 51 37 48 101 111 93 64 46 51 67 124 131 144 147 153 163 146 147 146 141 143 147 153 154
184 160 212 269 293 16 17 9 340 23 21 22 26 54 78 48 64 48 80 42 36 49 69 85 58 68 76 72 61 59 57 64 64 68 62 52 54 62 62 48 54 64 64 79 97 113 82 90 107 111 95 146 156 154 142 139 138 138 139 144 154 162 163
101 313 321 340 322 357 32 36 10 19 28 20 7 66 70 78 74 71 60 69 47 35 53 72 80 69 63 67 53 53 57 53 54 64 71 62 61 54 41 34 83 84 110 121 148 155 166 151 130 98 92 82 114 133 140 137 139 142 144 150 158 164 172
129 182 173 278 304 299 93 55 45 49 29 32 16 41 54 61 67 68 50 52 47 29 59 71 91 80 73 86 81 76 91 97 87 93 104 114 101 110 118 115 109 135 173 177 174 166 151 127 107 99 93 101 118 126 134 152 151 152 155 161 163 174 179
358 74 113 161 237 344 16 24 40 359 341 55 50 46 55 55 63 66 64 60 65 54 48 28 65 80 47 58 99 118 141 142 153 156 141 162 157 140 127 141 154 162 162 136 114 120 103 104 106 102 104 112 128 145 155 152 156 158 164 167 162 146 141
161 163 191 172 144 149 254 9 42 350 329 54 80 59 54 51 56 60 70 57 53 59 52 51 56 64 46 35 25 34 34 22 351 347 50 78 85 114 132 126 93 86 74 90 131 141 108 105 110 108 116 129 129 121 105 108 127 135 124 109 108 120 129
240 344 94 334 31 72 56 42 23 355 340 25 68 62 71 66 60 66 72 67 54 46 42 42 54 52 52 30 66 68 48 37 137 174 166 142 123 78 83 77 59 70 79 110 144 143 116 107 113 122 131 140 132 128 122 126 132 132 116 97 91 100 92
22 16 59 22 64 83 64 45 41 34 14 31 62 36 39 69 75 72 68 61 69 58 50 45 41 50 53 45 56 47 36 23 20 21 40 46 45 37 42 46 40 81 148 151 162 153 141 138 139 138 143 151 151 143 142 123 100 107 113 112 111 109 119
37 345 56 81 90 82 77 70 57 46 34 27 46 41 38 46 46 56 64 58 51 62 60 51 40 40 58 53 52 47 39 23 16 24 27 31 31 40 42 55 69 211 188 161 156 153 152 152 148 151 149 167 168 156 148 142 137 123 117 113 106 92 92